owner,sensor,date,latitude,longitude,vertical_datum,mass_concentration_of_oxygen_in_sea_water,qcFlag 
SCCF RECON,ioos:station:SCCF:16:1,2012-05-01T00:00:00Z,26.4345,-81.9647,2.503,6.73,1111122 
SCCF RECON,ioos:station:SCCF:16:1,2012-05-01T01:00:00Z,26.4345,-81.9647,2.555,6.72,1111122 
SCCF RECON,ioos:station:SCCF:16:1,2012-05-01T02:00:00Z,26.4345,-81.9647,2.504,6.68,1111122 
SCCF RECON,ioos:station:SCCF:16:1,2012-05-01T03:00:00Z,26.4345,-81.9647,2.471,6.64,1111122 
SCCF RECON,ioos:station:SCCF:16:1,2012-05-01T04:00:00Z,26.4345,-81.9647,2.338,6.56,1111122 
SCCF RECON,ioos:station:SCCF:16:1,2012-05-01T05:00:00Z,26.4345,-81.9647,2.309,6.5,1111122 
SCCF RECON,ioos:station:SCCF:16:1,2012-05-01T06:00:00Z,26.4345,-81.9647,2.188,6.43,1111122 
SCCF RECON,ioos:station:SCCF:16:1,2012-05-01T07:00:00Z,26.4345,-81.9647,2.215,6.31,1111122 
SCCF RECON,ioos:station:SCCF:16:1,2012-05-01T08:00:00Z,26.4345,-81.9647,2.289,6.2,1111122 
SCCF RECON,ioos:station:SCCF:16:1,2012-05-01T09:00:00Z,26.4345,-81.9647,2.48,6.4,1111122 
SCCF RECON,ioos:station:SCCF:16:1,2012-05-01T10:00:00Z,26.4345,-81.9647,2.584,6.52,1111122 
SCCF RECON,ioos:station:SCCF:16:1,2012-05-01T11:00:00Z,26.4345,-81.9647,2.707,6.46,1111122 
SCCF RECON,ioos:station:SCCF:16:1,2012-05-01T12:00:00Z,26.4345,-81.9647,2.777,6.48,1111122 
SCCF RECON,ioos:station:SCCF:16:1,2012-05-01T13:00:00Z,26.4345,-81.9647,2.791,6.53,1111122 
SCCF RECON,ioos:station:SCCF:16:1,2012-05-01T14:00:00Z,26.4345,-81.9647,2.833,6.59,1111122 
SCCF RECON,ioos:station:SCCF:16:1,2012-05-01T15:00:00Z,26.4345,-81.9647,2.818,6.64,1111122 
SCCF RECON,ioos:station:SCCF:16:1,2012-05-01T16:00:00Z,26.4345,-81.9647,2.725,6.67,1111122 
SCCF RECON,ioos:station:SCCF:16:1,2012-05-01T17:00:00Z,26.4345,-81.9647,2.592,6.72,1111122 
SCCF RECON,ioos:station:SCCF:16:1,2012-05-01T18:00:00Z,26.4345,-81.9647,2.457,6.76,1111122 
SCCF RECON,ioos:station:SCCF:16:1,2012-05-01T19:00:00Z,26.4345,-81.9647,2.395,6.73,1111122 
SCCF RECON,ioos:station:SCCF:16:1,2012-05-01T20:00:00Z,26.4345,-81.9647,2.406,6.63,1111122 
SCCF RECON,ioos:station:SCCF:16:1,2012-05-01T21:00:00Z,26.4345,-81.9647,2.438,6.65,1111122 
SCCF RECON,ioos:station:SCCF:16:1,2012-05-01T22:00:00Z,26.4345,-81.9647,2.572,6.72,1111122 
SCCF RECON,ioos:station:SCCF:16:1,2012-05-01T23:00:00Z,26.4345,-81.9647,2.682,6.85,1111122 
SCCF RECON,ioos:station:SCCF:16:1,2012-05-02T00:00:00Z,26.4345,-81.9647,2.707,6.84,1111122 
SCCF RECON,ioos:station:SCCF:16:1,2012-05-02T01:00:00Z,26.4345,-81.9647,2.754,6.82,1111122 
SCCF RECON,ioos:station:SCCF:16:1,2012-05-02T02:00:00Z,26.4345,-81.9647,2.797,6.8,1111122 
SCCF RECON,ioos:station:SCCF:16:1,2012-05-02T03:00:00Z,26.4345,-81.9647,2.79,6.76,1111122 
SCCF RECON,ioos:station:SCCF:16:1,2012-05-02T04:00:00Z,26.4345,-81.9647,2.677,6.69,1111122 
SCCF RECON,ioos:station:SCCF:16:1,2012-05-02T05:00:00Z,26.4345,-81.9647,2.537,6.6,1111122 
SCCF RECON,ioos:station:SCCF:16:1,2012-05-02T06:00:00Z,26.4345,-81.9647,2.392,6.54,1111122 
SCCF RECON,ioos:station:SCCF:16:1,2012-05-02T07:00:00Z,26.4345,-81.9647,2.29,6.45,1111122 
SCCF RECON,ioos:station:SCCF:16:1,2012-05-02T08:00:00Z,26.4345,-81.9647,2.273,6.36,1111122 
SCCF RECON,ioos:station:SCCF:16:1,2012-05-02T09:00:00Z,26.4345,-81.9647,2.304,6.33,1111122 
SCCF RECON,ioos:station:SCCF:16:1,2012-05-02T10:00:00Z,26.4345,-81.9647,2.548,6.28,1111122 
SCCF RECON,ioos:station:SCCF:16:1,2012-05-02T11:00:00Z,26.4345,-81.9647,2.765,6.31,1111122 
SCCF RECON,ioos:station:SCCF:16:1,2012-05-02T12:00:00Z,26.4345,-81.9647,2.819,6.38,1111122 
SCCF RECON,ioos:station:SCCF:16:1,2012-05-02T13:00:00Z,26.4345,-81.9647,2.88,6.51,1111122 
SCCF RECON,ioos:station:SCCF:16:1,2012-05-02T14:00:00Z,26.4345,-81.9647,2.963,6.6,1111122 
SCCF RECON,ioos:station:SCCF:16:1,2012-05-02T15:00:00Z,26.4345,-81.9647,2.948,6.63,1111122 
SCCF RECON,ioos:station:SCCF:16:1,2012-05-02T16:00:00Z,26.4345,-81.9647,2.84,6.65,1111122 
SCCF RECON,ioos:station:SCCF:16:1,2012-05-02T17:00:00Z,26.4345,-81.9647,2.705,6.69,1111122 
SCCF RECON,ioos:station:SCCF:16:1,2012-05-02T18:00:00Z,26.4345,-81.9647,2.594,6.74,1111122 
SCCF RECON,ioos:station:SCCF:16:1,2012-05-02T19:00:00Z,26.4345,-81.9647,2.492,6.72,1111122 
SCCF RECON,ioos:station:SCCF:16:1,2012-05-02T20:00:00Z,26.4345,-81.9647,2.368,6.66,1111122 
SCCF RECON,ioos:station:SCCF:16:1,2012-05-02T21:00:00Z,26.4345,-81.9647,2.358,6.73,1111122 
SCCF RECON,ioos:station:SCCF:16:1,2012-05-02T22:00:00Z,26.4345,-81.9647,2.408,6.74,1111122 
SCCF RECON,ioos:station:SCCF:16:1,2012-05-02T23:00:00Z,26.4345,-81.9647,2.564,6.76,1111122 
SCCF RECON,ioos:station:SCCF:16:1,2012-05-03T00:00:00Z,26.4345,-81.9647,2.705,6.75,1111122 
SCCF RECON,ioos:station:SCCF:16:1,2012-05-03T01:00:00Z,26.4345,-81.9647,2.863,6.74,1111122 
SCCF RECON,ioos:station:SCCF:16:1,2012-05-03T02:00:00Z,26.4345,-81.9647,2.92,6.66,1111122 
SCCF RECON,ioos:station:SCCF:16:1,2012-05-03T03:00:00Z,26.4345,-81.9647,2.919,6.63,1111122 
SCCF RECON,ioos:station:SCCF:16:1,2012-05-03T04:00:00Z,26.4345,-81.9647,2.875,6.6,1111122 
SCCF RECON,ioos:station:SCCF:16:1,2012-05-03T05:00:00Z,26.4345,-81.9647,2.769,6.52,1111122 
SCCF RECON,ioos:station:SCCF:16:1,2012-05-03T06:00:00Z,26.4345,-81.9647,2.578,6.47,1111122 
SCCF RECON,ioos:station:SCCF:16:1,2012-05-03T07:00:00Z,26.4345,-81.9647,2.415,6.37,1111122 
SCCF RECON,ioos:station:SCCF:16:1,2012-05-03T08:00:00Z,26.4345,-81.9647,2.356,6.25,1111122 
SCCF RECON,ioos:station:SCCF:16:1,2012-05-03T09:00:00Z,26.4345,-81.9647,2.361,6.26,1111122 
SCCF RECON,ioos:station:SCCF:16:1,2012-05-03T10:00:00Z,26.4345,-81.9647,2.435,6.23,1111122 
SCCF RECON,ioos:station:SCCF:16:1,2012-05-03T11:00:00Z,26.4345,-81.9647,2.67,6.24,1111122 
SCCF RECON,ioos:station:SCCF:16:1,2012-05-03T12:00:00Z,26.4345,-81.9647,2.895,6.25,1111122 
SCCF RECON,ioos:station:SCCF:16:1,2012-05-03T13:00:00Z,26.4345,-81.9647,2.959,6.29,1111122 
SCCF RECON,ioos:station:SCCF:16:1,2012-05-03T14:00:00Z,26.4345,-81.9647,3.029,6.46,1111122 
SCCF RECON,ioos:station:SCCF:16:1,2012-05-03T15:00:00Z,26.4345,-81.9647,3.081,6.54,1111122 
SCCF RECON,ioos:station:SCCF:16:1,2012-05-03T16:00:00Z,26.4345,-81.9647,2.99,6.5,1111122 
SCCF RECON,ioos:station:SCCF:16:1,2012-05-03T17:00:00Z,26.4345,-81.9647,2.769,6.51,1111122 
SCCF RECON,ioos:station:SCCF:16:1,2012-05-03T18:00:00Z,26.4345,-81.9647,2.606,6.53,1111122 
SCCF RECON,ioos:station:SCCF:16:1,2012-05-03T19:00:00Z,26.4345,-81.9647,2.444,6.5,1111122 
SCCF RECON,ioos:station:SCCF:16:1,2012-05-03T20:00:00Z,26.4345,-81.9647,2.299,6.57,1111122 
SCCF RECON,ioos:station:SCCF:16:1,2012-05-03T21:00:00Z,26.4345,-81.9647,2.162,6.78,1111122 
SCCF RECON,ioos:station:SCCF:16:1,2012-05-03T22:00:00Z,26.4345,-81.9647,2.155,6.75,1111122 
SCCF RECON,ioos:station:SCCF:16:1,2012-05-03T23:00:00Z,26.4345,-81.9647,2.332,6.77,1111122 
SCCF RECON,ioos:station:SCCF:16:1,2012-05-04T00:00:00Z,26.4345,-81.9647,2.528,6.79,1111122 
SCCF RECON,ioos:station:SCCF:16:1,2012-05-04T01:00:00Z,26.4345,-81.9647,2.697,6.85,1111122 
SCCF RECON,ioos:station:SCCF:16:1,2012-05-04T02:00:00Z,26.4345,-81.9647,2.85,6.88,1111122 
SCCF RECON,ioos:station:SCCF:16:1,2012-05-04T03:00:00Z,26.4345,-81.9647,2.999,6.81,1111122 
SCCF RECON,ioos:station:SCCF:16:1,2012-05-04T04:00:00Z,26.4345,-81.9647,2.942,6.76,1111122 
SCCF RECON,ioos:station:SCCF:16:1,2012-05-04T05:00:00Z,26.4345,-81.9647,2.824,6.66,1111122 
SCCF RECON,ioos:station:SCCF:16:1,2012-05-04T06:00:00Z,26.4345,-81.9647,2.713,6.56,1111122 
SCCF RECON,ioos:station:SCCF:16:1,2012-05-04T07:00:00Z,26.4345,-81.9647,2.566,6.5,1111122 
SCCF RECON,ioos:station:SCCF:16:1,2012-05-04T08:00:00Z,26.4345,-81.9647,2.463,6.38,1111122 
SCCF RECON,ioos:station:SCCF:16:1,2012-05-04T09:00:00Z,26.4345,-81.9647,2.383,6.3,1111122 
SCCF RECON,ioos:station:SCCF:16:1,2012-05-04T10:00:00Z,26.4345,-81.9647,2.393,6.3,1111122 
SCCF RECON,ioos:station:SCCF:16:1,2012-05-04T11:00:00Z,26.4345,-81.9647,2.541,6.26,1111122 
SCCF RECON,ioos:station:SCCF:16:1,2012-05-04T12:00:00Z,26.4345,-81.9647,2.757,6.33,1111122 
SCCF RECON,ioos:station:SCCF:16:1,2012-05-04T13:00:00Z,26.4345,-81.9647,2.972,6.4,1111122 
SCCF RECON,ioos:station:SCCF:16:1,2012-05-04T14:00:00Z,26.4345,-81.9647,3.066,6.47,1111122 
SCCF RECON,ioos:station:SCCF:16:1,2012-05-04T15:00:00Z,26.4345,-81.9647,3.084,6.52,1111122 
SCCF RECON,ioos:station:SCCF:16:1,2012-05-04T16:00:00Z,26.4345,-81.9647,3.06,6.52,1111122 
SCCF RECON,ioos:station:SCCF:16:1,2012-05-04T17:00:00Z,26.4345,-81.9647,2.912,6.55,1111122 
SCCF RECON,ioos:station:SCCF:16:1,2012-05-04T18:00:00Z,26.4345,-81.9647,2.697,6.63,1111122 
SCCF RECON,ioos:station:SCCF:16:1,2012-05-04T19:00:00Z,26.4345,-81.9647,2.471,6.54,1111122 
SCCF RECON,ioos:station:SCCF:16:1,2012-05-04T20:00:00Z,26.4345,-81.9647,2.277,6.6,1111122 
SCCF RECON,ioos:station:SCCF:16:1,2012-05-04T21:00:00Z,26.4345,-81.9647,2.091,6.81,1111122 
SCCF RECON,ioos:station:SCCF:16:1,2012-05-04T22:00:00Z,26.4345,-81.9647,1.971,6.71,1111122 
SCCF RECON,ioos:station:SCCF:16:1,2012-05-04T23:00:00Z,26.4345,-81.9647,2.027,6.99,1111122 
SCCF RECON,ioos:station:SCCF:16:1,2012-05-05T00:00:00Z,26.4345,-81.9647,2.275,6.95,1111122 
SCCF RECON,ioos:station:SCCF:16:1,2012-05-05T01:00:00Z,26.4345,-81.9647,2.527,6.83,1111122 
SCCF RECON,ioos:station:SCCF:16:1,2012-05-05T02:00:00Z,26.4345,-81.9647,2.682,6.89,1111122 
SCCF RECON,ioos:station:SCCF:16:1,2012-05-05T03:00:00Z,26.4345,-81.9647,2.821,6.84,1111122 
SCCF RECON,ioos:station:SCCF:16:1,2012-05-05T04:00:00Z,26.4345,-81.9647,2.929,6.86,1111122 
SCCF RECON,ioos:station:SCCF:16:1,2012-05-05T05:00:00Z,26.4345,-81.9647,2.962,6.87,1111122 
SCCF RECON,ioos:station:SCCF:16:1,2012-05-05T06:00:00Z,26.4345,-81.9647,2.843,6.79,1111122 
SCCF RECON,ioos:station:SCCF:16:1,2012-05-05T07:00:00Z,26.4345,-81.9647,2.682,6.56,1111122 
SCCF RECON,ioos:station:SCCF:16:1,2012-05-05T08:00:00Z,26.4345,-81.9647,2.562,6.55,1111122 
SCCF RECON,ioos:station:SCCF:16:1,2012-05-05T09:00:00Z,26.4345,-81.9647,2.484,6.47,1111122 
SCCF RECON,ioos:station:SCCF:16:1,2012-05-05T10:00:00Z,26.4345,-81.9647,2.419,6.39,1111122 
SCCF RECON,ioos:station:SCCF:16:1,2012-05-05T11:00:00Z,26.4345,-81.9647,2.456,6.25,1111122 
SCCF RECON,ioos:station:SCCF:16:1,2012-05-05T12:00:00Z,26.4345,-81.9647,2.633,6.34,1111122 
SCCF RECON,ioos:station:SCCF:16:1,2012-05-05T13:00:00Z,26.4345,-81.9647,2.837,6.42,1111122 
SCCF RECON,ioos:station:SCCF:16:1,2012-05-05T14:00:00Z,26.4345,-81.9647,2.997,6.51,1111122 
SCCF RECON,ioos:station:SCCF:16:1,2012-05-05T15:00:00Z,26.4345,-81.9647,3.066,6.62,1111122 
SCCF RECON,ioos:station:SCCF:16:1,2012-05-05T16:00:00Z,26.4345,-81.9647,3.086,6.68,1111122 
SCCF RECON,ioos:station:SCCF:16:1,2012-05-05T17:00:00Z,26.4345,-81.9647,3.054,6.69,1111122 
SCCF RECON,ioos:station:SCCF:16:1,2012-05-05T18:00:00Z,26.4345,-81.9647,2.874,6.6,1111122 
SCCF RECON,ioos:station:SCCF:16:1,2012-05-05T19:00:00Z,26.4345,-81.9647,2.606,6.68,1111122 
SCCF RECON,ioos:station:SCCF:16:1,2012-05-05T20:00:00Z,26.4345,-81.9647,2.363,6.7,1111122 
SCCF RECON,ioos:station:SCCF:16:1,2012-05-05T21:00:00Z,26.4345,-81.9647,2.142,6.97,1111122 
SCCF RECON,ioos:station:SCCF:16:1,2012-05-05T22:00:00Z,26.4345,-81.9647,1.91,6.95,1111122 
SCCF RECON,ioos:station:SCCF:16:1,2012-05-05T23:00:00Z,26.4345,-81.9647,1.811,7.4,1111122 
SCCF RECON,ioos:station:SCCF:16:1,2012-05-06T00:00:00Z,26.4345,-81.9647,1.937,7.39,1111122 
SCCF RECON,ioos:station:SCCF:16:1,2012-05-06T01:00:00Z,26.4345,-81.9647,2.241,7.28,1111122 
SCCF RECON,ioos:station:SCCF:16:1,2012-05-06T02:00:00Z,26.4345,-81.9647,2.48,7.04,1111122 
SCCF RECON,ioos:station:SCCF:16:1,2012-05-06T03:00:00Z,26.4345,-81.9647,2.639,6.87,1111122 
SCCF RECON,ioos:station:SCCF:16:1,2012-05-06T04:00:00Z,26.4345,-81.9647,2.799,6.92,1111122 
SCCF RECON,ioos:station:SCCF:16:1,2012-05-06T05:00:00Z,26.4345,-81.9647,2.907,6.95,1111122 
SCCF RECON,ioos:station:SCCF:16:1,2012-05-06T06:00:00Z,26.4345,-81.9647,2.9,6.92,1111122 
SCCF RECON,ioos:station:SCCF:16:1,2012-05-06T07:00:00Z,26.4345,-81.9647,2.794,6.8,1111122 
SCCF RECON,ioos:station:SCCF:16:1,2012-05-06T08:00:00Z,26.4345,-81.9647,2.656,6.52,1111122 
SCCF RECON,ioos:station:SCCF:16:1,2012-05-06T09:00:00Z,26.4345,-81.9647,2.596,6.58,1111122 
SCCF RECON,ioos:station:SCCF:16:1,2012-05-06T10:00:00Z,26.4345,-81.9647,2.538,6.53,1111122 
SCCF RECON,ioos:station:SCCF:16:1,2012-05-06T11:00:00Z,26.4345,-81.9647,2.506,6.6,1111122 
SCCF RECON,ioos:station:SCCF:16:1,2012-05-06T12:00:00Z,26.4345,-81.9647,2.568,6.52,1111122 
SCCF RECON,ioos:station:SCCF:16:1,2012-05-06T13:00:00Z,26.4345,-81.9647,2.738,6.58,1111122 
SCCF RECON,ioos:station:SCCF:16:1,2012-05-06T14:00:00Z,26.4345,-81.9647,2.93,6.81,1111122 
SCCF RECON,ioos:station:SCCF:16:1,2012-05-06T15:00:00Z,26.4345,-81.9647,3.084,6.82,1111122 
SCCF RECON,ioos:station:SCCF:16:1,2012-05-06T16:00:00Z,26.4345,-81.9647,3.119,6.77,1111122 
SCCF RECON,ioos:station:SCCF:16:1,2012-05-06T17:00:00Z,26.4345,-81.9647,3.128,6.77,1111122 
SCCF RECON,ioos:station:SCCF:16:1,2012-05-06T18:00:00Z,26.4345,-81.9647,3.05,6.74,1111122 
SCCF RECON,ioos:station:SCCF:16:1,2012-05-06T19:00:00Z,26.4345,-81.9647,2.854,6.71,1111122 
SCCF RECON,ioos:station:SCCF:16:1,2012-05-06T20:00:00Z,26.4345,-81.9647,2.585,6.78,1111122 
SCCF RECON,ioos:station:SCCF:16:1,2012-05-06T21:00:00Z,26.4345,-81.9647,2.318,6.94,1111122 
SCCF RECON,ioos:station:SCCF:16:1,2012-05-06T22:00:00Z,26.4345,-81.9647,2.065,7.16,1111122 
SCCF RECON,ioos:station:SCCF:16:1,2012-05-06T23:00:00Z,26.4345,-81.9647,1.866,7.14,1111122 
SCCF RECON,ioos:station:SCCF:16:1,2012-05-07T00:00:00Z,26.4345,-81.9647,1.787,7.51,1111122 
SCCF RECON,ioos:station:SCCF:16:1,2012-05-07T01:00:00Z,26.4345,-81.9647,1.953,7.2,1111122 
SCCF RECON,ioos:station:SCCF:16:1,2012-05-07T02:00:00Z,26.4345,-81.9647,2.258,7.26,1111122 
SCCF RECON,ioos:station:SCCF:16:1,2012-05-07T03:00:00Z,26.4345,-81.9647,2.517,7.02,1111122 
SCCF RECON,ioos:station:SCCF:16:1,2012-05-07T04:00:00Z,26.4345,-81.9647,2.638,6.87,1111122 
SCCF RECON,ioos:station:SCCF:16:1,2012-05-07T05:00:00Z,26.4345,-81.9647,2.758,6.82,1111122 
SCCF RECON,ioos:station:SCCF:16:1,2012-05-07T06:00:00Z,26.4345,-81.9647,2.852,6.86,1111122 
SCCF RECON,ioos:station:SCCF:16:1,2012-05-07T07:00:00Z,26.4345,-81.9647,2.855,6.8,1111122 
SCCF RECON,ioos:station:SCCF:16:1,2012-05-07T08:00:00Z,26.4345,-81.9647,2.759,6.72,1111122 
SCCF RECON,ioos:station:SCCF:16:1,2012-05-07T09:00:00Z,26.4345,-81.9647,2.67,6.39,1111122 
SCCF RECON,ioos:station:SCCF:16:1,2012-05-07T10:00:00Z,26.4345,-81.9647,2.599,6.55,1111122 
SCCF RECON,ioos:station:SCCF:16:1,2012-05-07T11:00:00Z,26.4345,-81.9647,2.53,6.79,1111122 
SCCF RECON,ioos:station:SCCF:16:1,2012-05-07T12:00:00Z,26.4345,-81.9647,2.512,6.75,1111122 
SCCF RECON,ioos:station:SCCF:16:1,2012-05-07T13:00:00Z,26.4345,-81.9647,2.62,6.59,1111122 
SCCF RECON,ioos:station:SCCF:16:1,2012-05-07T14:00:00Z,26.4345,-81.9647,2.797,6.88,1111122 
SCCF RECON,ioos:station:SCCF:16:1,2012-05-07T15:00:00Z,26.4345,-81.9647,2.972,6.75,1111122 
SCCF RECON,ioos:station:SCCF:16:1,2012-05-07T16:00:00Z,26.4345,-81.9647,3.089,6.71,1111122 
SCCF RECON,ioos:station:SCCF:16:1,2012-05-07T17:00:00Z,26.4345,-81.9647,3.129,6.68,1111122 
SCCF RECON,ioos:station:SCCF:16:1,2012-05-07T18:00:00Z,26.4345,-81.9647,3.118,6.69,1111122 
SCCF RECON,ioos:station:SCCF:16:1,2012-05-07T19:00:00Z,26.4345,-81.9647,3.03,6.73,1111122 
SCCF RECON,ioos:station:SCCF:16:1,2012-05-07T20:00:00Z,26.4345,-81.9647,2.83,6.66,1111122 
SCCF RECON,ioos:station:SCCF:16:1,2012-05-07T21:00:00Z,26.4345,-81.9647,2.56,6.76,1111122 
SCCF RECON,ioos:station:SCCF:16:1,2012-05-07T22:00:00Z,26.4345,-81.9647,2.288,6.85,1111122 
SCCF RECON,ioos:station:SCCF:16:1,2012-05-07T23:00:00Z,26.4345,-81.9647,2.059,7.11,1111122 
SCCF RECON,ioos:station:SCCF:16:1,2012-05-08T00:00:00Z,26.4345,-81.9647,1.89,7.04,1111122 
SCCF RECON,ioos:station:SCCF:16:1,2012-05-08T01:00:00Z,26.4345,-81.9647,1.855,7.33,1111122 
SCCF RECON,ioos:station:SCCF:16:1,2012-05-08T02:00:00Z,26.4345,-81.9647,2.034,7.05,1111122 
SCCF RECON,ioos:station:SCCF:16:1,2012-05-08T03:00:00Z,26.4345,-81.9647,2.372,7.03,1111122 
SCCF RECON,ioos:station:SCCF:16:1,2012-05-08T04:00:00Z,26.4345,-81.9647,2.561,6.83,1111122 
SCCF RECON,ioos:station:SCCF:16:1,2012-05-08T05:00:00Z,26.4345,-81.9647,2.661,6.78,1111122 
SCCF RECON,ioos:station:SCCF:16:1,2012-05-08T06:00:00Z,26.4345,-81.9647,2.758,6.8,1111122 
SCCF RECON,ioos:station:SCCF:16:1,2012-05-08T07:00:00Z,26.4345,-81.9647,2.87,6.77,1111122 
SCCF RECON,ioos:station:SCCF:16:1,2012-05-08T08:00:00Z,26.4345,-81.9647,2.846,6.67,1111122 
SCCF RECON,ioos:station:SCCF:16:1,2012-05-08T09:00:00Z,26.4345,-81.9647,2.759,6.57,1111122 
SCCF RECON,ioos:station:SCCF:16:1,2012-05-08T10:00:00Z,26.4345,-81.9647,2.691,6.09,1111122 
SCCF RECON,ioos:station:SCCF:16:1,2012-05-08T11:00:00Z,26.4345,-81.9647,2.622,6.35,1111122 
SCCF RECON,ioos:station:SCCF:16:1,2012-05-08T12:00:00Z,26.4345,-81.9647,2.587,6.42,1111122 
SCCF RECON,ioos:station:SCCF:16:1,2012-05-08T13:00:00Z,26.4345,-81.9647,2.6,6.37,1111122 
SCCF RECON,ioos:station:SCCF:16:1,2012-05-08T14:00:00Z,26.4345,-81.9647,2.705,6.35,1111122 
SCCF RECON,ioos:station:SCCF:16:1,2012-05-08T15:00:00Z,26.4345,-81.9647,2.85,6.8,1111122 
SCCF RECON,ioos:station:SCCF:16:1,2012-05-08T16:00:00Z,26.4345,-81.9647,2.995,6.64,1111122 
SCCF RECON,ioos:station:SCCF:16:1,2012-05-08T17:00:00Z,26.4345,-81.9647,3.067,6.73,1111122 
SCCF RECON,ioos:station:SCCF:16:1,2012-05-08T18:00:00Z,26.4345,-81.9647,3.088,6.73,1111122 
SCCF RECON,ioos:station:SCCF:16:1,2012-05-08T19:00:00Z,26.4345,-81.9647,3.058,6.75,1111122 
SCCF RECON,ioos:station:SCCF:16:1,2012-05-08T20:00:00Z,26.4345,-81.9647,2.924,6.57,1111122 
SCCF RECON,ioos:station:SCCF:16:1,2012-05-08T21:00:00Z,26.4345,-81.9647,2.711,6.75,1111122 
SCCF RECON,ioos:station:SCCF:16:1,2012-05-08T22:00:00Z,26.4345,-81.9647,2.435,6.82,1111122 
SCCF RECON,ioos:station:SCCF:16:1,2012-05-08T23:00:00Z,26.4345,-81.9647,2.193,6.96,1111122 
SCCF RECON,ioos:station:SCCF:16:1,2012-05-09T00:00:00Z,26.4345,-81.9647,2.004,7.34,1111122 
SCCF RECON,ioos:station:SCCF:16:1,2012-05-09T01:00:00Z,26.4345,-81.9647,1.86,7.25,1111122 
SCCF RECON,ioos:station:SCCF:16:1,2012-05-09T02:00:00Z,26.4345,-81.9647,1.854,7.37,1111122 
SCCF RECON,ioos:station:SCCF:16:1,2012-05-09T03:00:00Z,26.4345,-81.9647,2.055,6.79,1111122 
SCCF RECON,ioos:station:SCCF:16:1,2012-05-09T04:00:00Z,26.4345,-81.9647,2.327,6.9,1111122 
SCCF RECON,ioos:station:SCCF:16:1,2012-05-09T05:00:00Z,26.4345,-81.9647,2.48,6.69,1111122 
SCCF RECON,ioos:station:SCCF:16:1,2012-05-09T06:00:00Z,26.4345,-81.9647,2.602,6.75,1111122 
SCCF RECON,ioos:station:SCCF:16:1,2012-05-09T07:00:00Z,26.4345,-81.9647,2.69,6.74,1111122 
SCCF RECON,ioos:station:SCCF:16:1,2012-05-09T08:00:00Z,26.4345,-81.9647,2.79,6.69,1111122 
SCCF RECON,ioos:station:SCCF:16:1,2012-05-09T09:00:00Z,26.4345,-81.9647,2.77,6.68,1111122 
SCCF RECON,ioos:station:SCCF:16:1,2012-05-09T10:00:00Z,26.4345,-81.9647,2.699,6.58,1111122 
SCCF RECON,ioos:station:SCCF:16:1,2012-05-09T11:00:00Z,26.4345,-81.9647,2.617,6.42,1111122 
SCCF RECON,ioos:station:SCCF:16:1,2012-05-09T12:00:00Z,26.4345,-81.9647,2.58,6.38,1111122 
SCCF RECON,ioos:station:SCCF:16:1,2012-05-09T13:00:00Z,26.4345,-81.9647,2.582,6.37,1111122 
SCCF RECON,ioos:station:SCCF:16:1,2012-05-09T14:00:00Z,26.4345,-81.9647,2.592,6.36,1111122 
SCCF RECON,ioos:station:SCCF:16:1,2012-05-09T15:00:00Z,26.4345,-81.9647,2.688,6.58,1111122 
SCCF RECON,ioos:station:SCCF:16:1,2012-05-09T16:00:00Z,26.4345,-81.9647,2.828,6.67,1111122 
SCCF RECON,ioos:station:SCCF:16:1,2012-05-09T17:00:00Z,26.4345,-81.9647,2.967,6.75,1111122 
SCCF RECON,ioos:station:SCCF:16:1,2012-05-09T18:00:00Z,26.4345,-81.9647,3.014,6.83,1111122 
SCCF RECON,ioos:station:SCCF:16:1,2012-05-09T19:00:00Z,26.4345,-81.9647,3.015,6.81,1111122 
SCCF RECON,ioos:station:SCCF:16:1,2012-05-09T20:00:00Z,26.4345,-81.9647,2.966,6.76,1111122 
SCCF RECON,ioos:station:SCCF:16:1,2012-05-09T21:00:00Z,26.4345,-81.9647,2.856,6.64,1111122 
SCCF RECON,ioos:station:SCCF:16:1,2012-05-09T22:00:00Z,26.4345,-81.9647,2.66,6.8,1111122 
SCCF RECON,ioos:station:SCCF:16:1,2012-05-09T23:00:00Z,26.4345,-81.9647,2.497,6.79,1111122 
SCCF RECON,ioos:station:SCCF:16:1,2012-05-10T00:00:00Z,26.4345,-81.9647,2.322,6.75,1111122 
SCCF RECON,ioos:station:SCCF:16:1,2012-05-10T01:00:00Z,26.4345,-81.9647,2.113,6.85,1111122 
SCCF RECON,ioos:station:SCCF:16:1,2012-05-10T02:00:00Z,26.4345,-81.9647,1.988,6.72,1111122 
SCCF RECON,ioos:station:SCCF:16:1,2012-05-10T03:00:00Z,26.4345,-81.9647,1.951,6.98,1111122 
SCCF RECON,ioos:station:SCCF:16:1,2012-05-10T04:00:00Z,26.4345,-81.9647,2.107,6.72,1111122 
SCCF RECON,ioos:station:SCCF:16:1,2012-05-10T05:00:00Z,26.4345,-81.9647,2.379,6.58,1111122 
SCCF RECON,ioos:station:SCCF:16:1,2012-05-10T06:00:00Z,26.4345,-81.9647,2.488,6.39,1111122 
SCCF RECON,ioos:station:SCCF:16:1,2012-05-10T07:00:00Z,26.4345,-81.9647,2.577,6.33,1111122 
SCCF RECON,ioos:station:SCCF:16:1,2012-05-10T08:00:00Z,26.4345,-81.9647,2.652,6.32,1111122 
SCCF RECON,ioos:station:SCCF:16:1,2012-05-10T09:00:00Z,26.4345,-81.9647,2.72,6.32,1111122 
SCCF RECON,ioos:station:SCCF:16:1,2012-05-10T10:00:00Z,26.4345,-81.9647,2.697,6.3,1111122 
SCCF RECON,ioos:station:SCCF:16:1,2012-05-10T11:00:00Z,26.4345,-81.9647,2.674,6.3,1111122 
SCCF RECON,ioos:station:SCCF:16:1,2012-05-10T12:00:00Z,26.4345,-81.9647,2.617,6.1,1111122 
SCCF RECON,ioos:station:SCCF:16:1,2012-05-10T13:00:00Z,26.4345,-81.9647,2.59,6.24,1111122 
SCCF RECON,ioos:station:SCCF:16:1,2012-05-10T14:00:00Z,26.4345,-81.9647,2.535,6.28,1111122 
SCCF RECON,ioos:station:SCCF:16:1,2012-05-10T15:00:00Z,26.4345,-81.9647,2.53,6.22,1111122 
SCCF RECON,ioos:station:SCCF:16:1,2012-05-10T16:00:00Z,26.4345,-81.9647,2.608,6.27,1111122 
SCCF RECON,ioos:station:SCCF:16:1,2012-05-10T17:00:00Z,26.4345,-81.9647,2.743,6.4,1111122 
SCCF RECON,ioos:station:SCCF:16:1,2012-05-10T18:00:00Z,26.4345,-81.9647,2.888,6.58,1111122 
SCCF RECON,ioos:station:SCCF:16:1,2012-05-10T19:00:00Z,26.4345,-81.9647,2.941,6.63,1111122 
SCCF RECON,ioos:station:SCCF:16:1,2012-05-10T20:00:00Z,26.4345,-81.9647,2.903,6.62,1111122 
SCCF RECON,ioos:station:SCCF:16:1,2012-05-10T21:00:00Z,26.4345,-81.9647,2.834,6.49,1111122 
SCCF RECON,ioos:station:SCCF:16:1,2012-05-10T22:00:00Z,26.4345,-81.9647,2.776,6.56,1111122 
SCCF RECON,ioos:station:SCCF:16:1,2012-05-10T23:00:00Z,26.4345,-81.9647,2.627,6.58,1111122 
SCCF RECON,ioos:station:SCCF:16:1,2012-05-11T00:00:00Z,26.4345,-81.9647,2.467,6.52,1111122 
SCCF RECON,ioos:station:SCCF:16:1,2012-05-11T01:00:00Z,26.4345,-81.9647,2.309,6.52,1111122 
SCCF RECON,ioos:station:SCCF:16:1,2012-05-11T02:00:00Z,26.4345,-81.9647,2.141,6.72,1111122 
SCCF RECON,ioos:station:SCCF:16:1,2012-05-11T03:00:00Z,26.4345,-81.9647,2.046,6.17,1111122 
SCCF RECON,ioos:station:SCCF:16:1,2012-05-11T04:00:00Z,26.4345,-81.9647,2.064,6.48,1111122 
SCCF RECON,ioos:station:SCCF:16:1,2012-05-11T05:00:00Z,26.4345,-81.9647,2.213,6.55,1111122 
SCCF RECON,ioos:station:SCCF:16:1,2012-05-11T06:00:00Z,26.4345,-81.9647,2.366,6.48,1111122 
SCCF RECON,ioos:station:SCCF:16:1,2012-05-11T07:00:00Z,26.4345,-81.9647,2.481,6.33,1111122 
SCCF RECON,ioos:station:SCCF:16:1,2012-05-11T08:00:00Z,26.4345,-81.9647,2.603,6.2,1111122 
SCCF RECON,ioos:station:SCCF:16:1,2012-05-11T09:00:00Z,26.4345,-81.9647,2.665,6.18,1111122 
SCCF RECON,ioos:station:SCCF:16:1,2012-05-11T10:00:00Z,26.4345,-81.9647,2.728,6.22,1111122 
SCCF RECON,ioos:station:SCCF:16:1,2012-05-11T11:00:00Z,26.4345,-81.9647,2.723,6.13,1111122 
SCCF RECON,ioos:station:SCCF:16:1,2012-05-11T12:00:00Z,26.4345,-81.9647,2.653,6.1,1111122 
SCCF RECON,ioos:station:SCCF:16:1,2012-05-11T13:00:00Z,26.4345,-81.9647,2.62,6.03,1111122 
SCCF RECON,ioos:station:SCCF:16:1,2012-05-11T14:00:00Z,26.4345,-81.9647,2.607,6.11,1111122 
SCCF RECON,ioos:station:SCCF:16:1,2012-05-11T15:00:00Z,26.4345,-81.9647,2.576,6.02,1111122 
SCCF RECON,ioos:station:SCCF:16:1,2012-05-11T16:00:00Z,26.4345,-81.9647,2.568,6.15,1111122 
SCCF RECON,ioos:station:SCCF:16:1,2012-05-11T17:00:00Z,26.4345,-81.9647,2.631,6.23,1111122 
SCCF RECON,ioos:station:SCCF:16:1,2012-05-11T18:00:00Z,26.4345,-81.9647,2.697,6.58,1111122 
SCCF RECON,ioos:station:SCCF:16:1,2012-05-11T19:00:00Z,26.4345,-81.9647,2.796,6.68,1111122 